Simultaneous Nadir Overpasses (SNOs) Predictions

Prediction of SNOs between FY3D and NOAA-19 Satellite Orbit:

Table of predicted SNOs for the next 14.0 days since TLE Epoch: 11/13/2020
Index Date (FY3D) Time (FY3D) Lat,Lon (FY3D) SZA (FY3D ) Date (NOAA-19) Time (NOAA-19) Lat,Lon (NOAA-19) SZA (NOAA-19 ) Distance(km) Time Diff (sec)
1 11/25/2020 21:02:27 -78.97, 15.68 79.11 11/25/2020 21:01:22 -78.99, 15.70 79.08 2.19 65
2 11/25/2020 21:53:12 79.00,-177.22 100.94 11/25/2020 21:52:17 78.98,-177.14 100.93 3.36 55
3 11/25/2020 22:43:57 -79.01, -9.94 79.05 11/25/2020 22:43:23 -78.98, -9.93 79.07 3.64 34
4 11/25/2020 23:34:41 79.00, 157.41 100.96 11/25/2020 23:34:17 78.99, 157.48 100.95 1.86 24
5 11/26/2020 00:25:26 -79.01, -35.30 79.04 11/26/2020 00:25:23 -78.99, -35.31 79.05 1.85 3
6 11/26/2020 01:16:10 79.00, 132.05 100.97 11/26/2020 01:16:17 79.01, 132.11 100.97 1.52 7
7 11/26/2020 02:06:55 -79.01, -60.67 79.02 11/26/2020 02:07:23 -79.01, -60.69 79.03 0.35 28
8 11/26/2020 02:57:39 79.00, 106.68 100.98 11/26/2020 02:58:17 79.03, 106.74 100.99 2.79 38
9 11/26/2020 03:48:24 -79.01, -86.04 79.01 11/26/2020 03:49:23 -79.02, -86.06 79.01 1.81 59
10 11/26/2020 04:39:09 79.04, 81.06 101.05 11/26/2020 04:40:18 79.01, 81.10 101.00 3.33 69
